Regional Weather Roundup
Issued by NWS Little Rock, AR

Home | Current Version | Previous Version | Graphics & Text | Print | Product List | Glossary On
Versions: 1 2 3 4 5 6 7 8 9 10 11 12 13 14 15 16 17 18 19 20 21 22 23 24 25 26 27 28 29 30 31 32 33 34 35 36 37 38 39 40 41 42 43 44 45 46 47 48 49 50
000
ASUS44 KLZK 300805
RWRLZK

WEATHER ROUNDUP FOR ARKANSAS
NATIONAL WEATHER SERVICE LITTLE ROCK AR
300 AM CDT TUE SEP 30 2014

NOTE: "FAIR" INDICATES FEW OR NO CLOUDS BELOW 12,000 FEET WITH NO
SIGNIFICANT WEATHER AND/OR OBSTRUCTIONS TO VISIBILITY.

ARZ001-003-010-029-300900-
NORTHWEST ARKANSAS

CITY           SKY/WX    TMP DP  RH WIND       PRES   REMARKS
FAYETTEVILLE   CLEAR     57  57 100 S3        29.99R
FORT SMITH     CLEAR     65  62  90 NE3       29.95R
HARRISON       CLEAR     60  58  92 CALM      29.99R
BENTONVILLE    CLEAR     61  57  88 CALM      29.99S
ROGERS         CLEAR     63  60  90 SE3       30.00R
SILOAM SPGS    CLEAR     61  55  82 E3        29.99S
HIGHFILL       CLEAR     59  57  93 CALM      29.98S
$$

ARZ004-005-016-300900-
NORTH CENTRAL ARKANSAS

CITY           SKY/WX    TMP DP  RH WIND       PRES   REMARKS
BATESVILLE     CLEAR     61  55  82 NW5       29.95S
FLIPPIN        CLEAR     59  54  82 CALM      29.97S
MTN HOME       CLEAR     63  59  87 CALM      29.96F
$$

ARZ040-041-300900-
WEST CENTRAL ARKANSAS

CITY           SKY/WX    TMP DP  RH WIND       PRES   REMARKS
MENA             N/A     59  59 100 CALM      29.97F
MOUNT IDA      CLEAR     59  58  96 CALM      29.93S FOG
$$

ARZ009-017-025-026-028-300900-
NORTHEAST ARKANSAS

CITY           SKY/WX    TMP DP  RH WIND       PRES   REMARKS
CORNING          N/A     59  55  88 N3        29.95S
JONESBORO      CLEAR     60  56  86 CALM      29.93F
NEWPORT        CLOUDY    61  57  86 CALM      29.95R
WALNUT RIDGE   CLEAR     61  55  82 N3        29.94S
BLYTHEVILLE    CLEAR     59  57  93 N5        29.94S
$$

ARZ022-023-033-042-044-300900-
CENTRAL ARKANSAS

CITY           SKY/WX    TMP DP  RH WIND       PRES   REMARKS
LITTLE ROCK    CLEAR     65  60  84 CALM      29.93S
N LITTLE ROCK    N/A     68  59  73 NE3       29.93S
JACKSONVILLE   CLEAR     60  57  90 CALM      29.93F
SEARCY         CLEAR     60  57  89 CALM      29.94F
HOT SPRINGS    CLEAR     61  59  93 NW3       29.94S
RUSSELLVILLE   CLEAR     62  60  93 CALM      29.94S
CLINTON        FAIR      57  57 100 CALM      29.96F FOG
$$

ARZ036-300900-
EAST ARKANSAS

CITY           SKY/WX    TMP DP  RH WIND       PRES   REMARKS
WEST MEMPHIS   CLEAR     61  60  97 NW3       29.92S
$$

ARZ050-053-066-070-073-300900-
SOUTHWEST ARKANSAS

CITY           SKY/WX    TMP DP  RH WIND       PRES   REMARKS
ARKADELPHIA    FAIR      62  62 100 CALM      29.93S
CAMDEN         CLEAR     59  57  94 CALM      29.92S FOG
TEXARKANA      CLOUDY    67  64  90 NE3       29.91S
EL DORADO      CLEAR     64  61  90 CALM      29.91F
DE QUEEN       FOG       61  61 100 CALM      29.91F VSB 1/2
$$

ARZ056-057-069-300900-
SOUTHEAST ARKANSAS

CITY           SKY/WX    TMP DP  RH WIND       PRES   REMARKS
PINE BLUFF     CLEAR     62  59  90 CALM      29.93S FOG
STUTTGART      CLEAR    N/A N/A N/A N5        29.92F
MONTICELLO     CLEAR     62  59  90 CALM      29.92R FOG

$$




USA.gov is the U.S. government's official web portal to all federal, state and local government web resources and services.